Weather History for Myrtle Beach, SC

Change the Weather History Date:

Friday, February 22, 2013

  Actual Average Record
Temperature  
Mean Temperature 46 °F -  
Max Temperature 51 °F 57 °F 75 °F (1993)
Min Temperature 42 °F 38 °F 25 °F (1999)
Degree Days  
Heating Degree Days 18    
Moisture  
Dew Point 41 °F    
Average Humidity 83    
Maximum Humidity 100    
Minimum Humidity 57    
Precipitation  
Precipitation 0.00 in - - ()
Sea Level Pressure  
Sea Level Pressure 30.19 in    
Wind  
Wind Speed 10 mph (NE)    
Max Wind Speed 17 mph    
Max Gust Speed 23 mph    
Visibility 8 miles    
Events Rain    
Averages and records for this station are not official NWS values.
T = Trace of Precipitation, MM = Missing Value Source: NWS Daily Summary

Daily Weather History Graph

Daily Weather History Graph

Search for Another Location

Airport:

Trip Planner

Search our weather history database for the weather conditions in past years. The results will help you decide how hot, cold, wet, or windy it might be!

Date:

Astronomy

Feb. 22, 2013 Rise Set
Actual Time 6:52 AM EST 6:06 PM EST
Civil Twilight 6:26 AM EST 6:31 PM EST
Nautical Twilight 5:57 AM EST 7:00 PM EST
Astronomical Twilight 5:29 AM EST 7:29 PM EST
Moon 3:21 PM EST (2/22) 4:30 AM EST (2/22)
Length of Visible Light 12h 04m
Length of Day
11h 14m
Waxing Gibbous, 90% of the Moon is Illuminated
Feb 22
Waxing Gibbous
Feb 25
Full
Mar 4
Last Quarter
Mar 11
New
Mar 19
First Quarter

Hourly Weather History & Observations

Time (EST) Temp. Windchill Dew Point Humidity Pressure Visibility Wind Dir Wind Speed Gust Speed Precip Events Conditions
12:15 AM 48.2 °F - 42.8 °F 82% 30.21 in 10.0 mi ENE 8.1 mph - N/A   Clear
12:35 AM 48.2 °F - 41.0 °F 76% 30.21 in 10.0 mi East 8.1 mph - N/A   Clear
12:55 AM 48.2 °F - 41.0 °F 76% 30.20 in 10.0 mi ENE 8.1 mph - N/A   Clear
1:15 AM 48.2 °F - 41.0 °F 76% 30.21 in 10.0 mi ENE 6.9 mph - N/A   Clear
1:55 AM 48.2 °F - 41.0 °F 76% 30.21 in 10.0 mi ENE 10.4 mph - N/A   Clear
2:15 AM 48.2 °F - 42.8 °F 82% 30.21 in 10.0 mi ENE 8.1 mph - N/A   Clear
2:35 AM 44.6 °F 40.2 °F 41.0 °F 87% 30.22 in 10.0 mi North 8.1 mph - N/A   Clear
2:55 AM 44.6 °F 40.7 °F 39.2 °F 81% 30.22 in 10.0 mi NE 6.9 mph - N/A   Clear
3:15 AM 44.6 °F 39.7 °F 37.4 °F 76% 30.22 in 10.0 mi NNE 9.2 mph - N/A   Clear
3:35 AM 42.8 °F 37.5 °F 37.4 °F 81% 30.24 in 10.0 mi North 9.2 mph - N/A   Clear
3:55 AM 42.8 °F 37.0 °F 37.4 °F 81% 30.24 in 10.0 mi NE 10.4 mph - N/A   Clear
4:15 AM 42.8 °F 36.2 °F 37.4 °F 81% 30.25 in 10.0 mi NNE 12.7 mph 16.1 mph N/A   Clear
4:35 AM 42.8 °F 36.6 °F 37.4 °F 81% 30.24 in 10.0 mi NNE 11.5 mph - N/A   Clear
4:55 AM 42.8 °F 35.8 °F 37.4 °F 81% 30.25 in 10.0 mi NNE 13.8 mph 18.4 mph N/A   Clear
5:15 AM 42.8 °F 35.4 °F 35.6 °F 76% 30.26 in 10.0 mi NNE 15.0 mph - N/A   Partly Cloudy
5:35 AM 42.8 °F 35.8 °F 35.6 °F 76% 30.26 in 10.0 mi NNE 13.8 mph - N/A   Mostly Cloudy
5:50 AM 42.8 °F 36.6 °F 33.8 °F 70% 30.27 in 10.0 mi NNE 11.5 mph - N/A   Mostly Cloudy
5:55 AM 42.8 °F 36.2 °F 33.8 °F 70% 30.27 in 10.0 mi NNE 12.7 mph - N/A   Overcast
6:50 AM 44.6 °F 38.1 °F 30.2 °F 57% 30.24 in 10.0 mi ENE 13.8 mph - N/A   Mostly Cloudy
7:45 AM 44.6 °F 38.1 °F 33.8 °F 66% 30.26 in 10.0 mi ENE 13.8 mph - N/A   Overcast
8:45 AM 46.4 °F 40.4 °F 35.6 °F 66% 30.26 in 10.0 mi ENE 13.8 mph 19.6 mph N/A   Overcast
9:45 AM 44.6 °F 38.1 °F 39.2 °F 81% 30.24 in 6.0 mi ESE 13.8 mph - N/A Rain Light Rain
10:45 AM 46.4 °F 40.1 °F 44.6 °F 93% 30.22 in 9.0 mi East 15.0 mph 23.0 mph N/A Rain Light Rain
11:45 AM 48.2 °F - 44.6 °F 87% 30.22 in 7.0 mi East 11.5 mph 17.3 mph N/A Rain Light Rain
12:45 PM 48.2 °F - 46.4 °F 93% 30.20 in 7.0 mi East 15.0 mph - N/A Rain Light Rain
1:45 PM 50.0 °F - 46.4 °F 87% 30.17 in 7.0 mi East 15.0 mph - N/A   Overcast
2:45 PM 50.0 °F - 46.4 °F 87% 30.14 in 7.0 mi East 15.0 mph - N/A   Overcast
4:45 PM 51.8 °F - 48.2 °F 88% 30.15 in 7.0 mi ENE 13.8 mph - N/A   Overcast
5:20 PM 51.8 °F - 48.2 °F 88% 30.12 in 2.0 mi ENE 17.3 mph - N/A   Overcast
5:45 PM 50.0 °F - 48.2 °F 94% 30.11 in 4.0 mi NE 11.5 mph - N/A   Overcast
6:55 PM 50.0 °F - 48.2 °F 94% 30.11 in 5.0 mi NNE 17.3 mph - N/A Rain Light Rain
7:45 PM 48.2 °F - 48.2 °F 100% 30.11 in 5.0 mi NNE 9.2 mph - N/A Rain Light Rain
8:45 PM 48.2 °F - 46.4 °F 93% 30.11 in 5.0 mi North 11.5 mph - N/A Rain Light Rain
9:55 PM 48.2 °F - 46.4 °F 93% 30.10 in 4.0 mi North 6.9 mph - N/A Rain Light Rain
11:15 PM 48.2 °F - 46.4 °F 93% 30.08 in 2.5 mi NNW 6.9 mph - N/A   Overcast
11:35 PM 48.2 °F - 46.4 °F 93% 30.07 in 2.5 mi North 8.1 mph - N/A   Overcast
11:55 PM 48.2 °F - 46.4 °F 93% 30.07 in 2.0 mi NNW 8.1 mph - N/A   Overcast